Weather History for KEAR - January, 2013

Change the Weather History Date:

Friday, January 4, 2013

  Actual Average Record
Temperature  
Mean Temperature 19 °F 24 °F  
Max Temperature 32 °F 35 °F 62 °F (1989)
Min Temperature 5 °F 13 °F -20 °F (1924)
Degree Days  
Heating Degree Days 46 41  
Month to date heating degree days 164  
Since 1 July heating degree days 2807  
Cooling Degree Days 0 0  
Month to date cooling degree days 0  
Year to date cooling degree days 0  
Moisture  
Dew Point 11 °F    
Average Humidity 79    
Maximum Humidity 100    
Minimum Humidity 57    
Precipitation  
Precipitation 0.00 in - 0.40 in (1910)
Sea Level Pressure  
Sea Level Pressure 30.15 in    
Wind  
Wind Speed 7 mph (SSW)    
Max Wind Speed 12 mph    
Max Gust Speed -    
Visibility 10 miles    
Events      
T = Trace of Precipitation, MM = Missing Value Source: NWS Daily Summary

Daily Weather History Graph

Daily Weather History Graph

Search for Another Location

Airport or City:

Trip Planner

Search our weather history database for the weather conditions in past years. The results will help you decide how hot, cold, wet, or windy it might be!

Date:

Astronomy

Jan. 04, 2013 Rise Set
Actual Time 8:00 AM CST 5:22 PM CST
Civil Twilight 7:29 AM CST 5:52 PM CST
Nautical Twilight 6:55 AM CST 6:27 PM CST
Astronomical Twilight 6:22 AM CST 7:00 PM CST
Moon 12:01 AM CST (1/4) 11:41 AM CST (1/4)
Length of Visible Light 10h 23m
Length of Day
9h 22m
Waning Gibbous, 55% of the Moon is Illuminated
Jan 4
Waning Gibbous
Jan 4
Last Quarter
Jan 11
New
Jan 18
First Quarter
Jan 26
Full

Hourly Weather History & Observations

Time (CST) Temp. Windchill Dew Point Humidity Pressure Visibility Wind Dir Wind Speed Gust Speed Precip Events Conditions
12:15 AM 14.0 °F 2.9 °F 8.6 °F 79% 30.25 in 10.0 mi SSW 8.1 mph - N/A   Clear
12:35 AM 12.2 °F -0.2 °F 6.8 °F 79% 30.24 in 10.0 mi South 9.2 mph - N/A   Clear
12:55 AM 12.2 °F -0.2 °F 6.8 °F 79% 30.23 in 10.0 mi SSW 9.2 mph - N/A   Clear
1:15 AM 12.2 °F 4.3 °F 12.2 °F 100% 30.22 in 10.0 mi West 4.6 mph - N/A   Clear
1:35 AM 12.2 °F 6.1 °F 8.6 °F 85% 30.22 in 10.0 mi WSW 3.5 mph - N/A   Clear
1:55 AM 12.2 °F 1.7 °F 6.8 °F 79% 30.21 in 10.0 mi SW 6.9 mph - N/A   Clear
2:15 AM 12.2 °F 0.7 °F 8.6 °F 85% 30.21 in 10.0 mi SSW 8.1 mph - N/A   Clear
2:35 AM 12.2 °F 1.7 °F 8.6 °F 85% 30.21 in 10.0 mi SSW 6.9 mph - N/A   Clear
2:55 AM 10.4 °F -2.4 °F 10.4 °F 100% 30.20 in 10.0 mi SSW 9.2 mph - N/A   Clear
3:15 AM 10.4 °F -4.1 °F 6.8 °F 85% 30.20 in 10.0 mi SSW 11.5 mph - N/A   Clear
3:35 AM 8.6 °F -2.6 °F 3.2 °F 79% 30.20 in 10.0 mi SW 6.9 mph - N/A   Clear
3:55 AM 10.4 °F 2.2 °F 8.6 °F 92% 30.20 in 10.0 mi West 4.6 mph - N/A   Clear
4:15 AM 10.4 °F 2.2 °F 6.8 °F 85% 30.19 in 10.0 mi WSW 4.6 mph - N/A   Clear
4:35 AM 8.6 °F - 6.8 °F 92% 30.19 in 10.0 mi Calm Calm - N/A   Clear
4:55 AM 5.0 °F -4.1 °F 1.4 °F 85% 30.19 in 10.0 mi WSW 4.6 mph - N/A   Clear
5:15 AM 8.6 °F -1.3 °F 5.0 °F 85% 30.19 in 10.0 mi SW 5.8 mph - N/A   Clear
5:35 AM 10.4 °F 2.2 °F 8.6 °F 92% 30.18 in 10.0 mi WSW 4.6 mph - N/A   Clear
5:55 AM 8.6 °F -2.6 °F 5.0 °F 85% 30.17 in 10.0 mi SSW 6.9 mph - N/A   Clear
6:15 AM 6.8 °F -4.8 °F -2.2 °F 67% 30.18 in 10.0 mi SW 6.9 mph - N/A   Clear
6:35 AM 10.4 °F -0.4 °F 8.6 °F 92% 30.18 in 10.0 mi SW 6.9 mph - N/A   Clear
6:55 AM 10.4 °F -1.5 °F 8.6 °F 92% 30.18 in 10.0 mi SSW 8.1 mph - N/A   Clear
7:15 AM 10.4 °F -2.4 °F 5.0 °F 79% 30.17 in 10.0 mi South 9.2 mph - N/A   Clear
7:35 AM 10.4 °F -1.5 °F 6.8 °F 85% 30.17 in 10.0 mi SSW 8.1 mph - N/A   Clear
7:55 AM 10.4 °F -1.5 °F 6.8 °F 85% 30.17 in 10.0 mi SW 8.1 mph - N/A   Clear
8:15 AM 10.4 °F -1.5 °F 6.8 °F 85% 30.17 in 10.0 mi SSW 8.1 mph - N/A   Clear
8:35 AM 10.4 °F -0.4 °F 5.0 °F 79% 30.18 in 10.0 mi SSW 6.9 mph - N/A   Clear
8:55 AM 10.4 °F -1.5 °F 5.0 °F 79% 30.18 in 10.0 mi SSW 8.1 mph - N/A   Clear
9:15 AM 12.2 °F -1.0 °F 6.8 °F 79% 30.18 in 10.0 mi SSW 10.4 mph - N/A   Clear
9:35 AM 14.0 °F 3.9 °F 6.8 °F 73% 30.19 in 10.0 mi SSW 6.9 mph - N/A   Clear
9:55 AM 15.8 °F 7.2 °F 8.6 °F 73% 30.19 in 10.0 mi WSW 5.8 mph - N/A   Clear
10:15 AM 17.6 °F 12.3 °F 10.4 °F 73% 30.19 in 10.0 mi WSW 3.5 mph - N/A   Clear
10:35 AM 17.6 °F - 10.4 °F 73% 30.20 in 10.0 mi Calm Calm - N/A   Clear
10:55 AM 19.4 °F - 10.4 °F 68% 30.20 in 10.0 mi Calm Calm - N/A   Clear
11:15 AM 21.2 °F 12.6 °F 12.2 °F 68% 30.21 in 10.0 mi SSW 6.9 mph - N/A   Clear
11:35 AM 21.2 °F 10.9 °F 14.0 °F 74% 30.20 in 10.0 mi SSW 9.2 mph - N/A   Clear
11:55 AM 24.8 °F 16.1 °F 12.2 °F 59% 30.19 in 10.0 mi SSW 8.1 mph - N/A   Clear
12:15 PM 24.8 °F 16.1 °F 14.0 °F 64% 30.18 in 10.0 mi SSW 8.1 mph - N/A   Clear
12:35 PM 24.8 °F 16.9 °F 14.0 °F 64% 30.17 in 10.0 mi SW 6.9 mph - N/A   Clear
12:55 PM 26.6 °F 22.6 °F 14.0 °F 59% 30.15 in 10.0 mi WSW 3.5 mph - N/A   Clear
1:15 PM 28.4 °F 24.6 °F 14.0 °F 55% 30.14 in 10.0 mi West 3.5 mph - N/A   Clear
1:35 PM 28.4 °F - 15.8 °F 59% 30.12 in 10.0 mi Calm Calm - N/A   Clear
1:55 PM 30.2 °F - 17.6 °F 60% 30.11 in 10.0 mi Calm Calm - N/A   Clear
2:15 PM 30.2 °F - 19.4 °F 64% 30.10 in 10.0 mi Calm Calm - N/A   Clear
2:35 PM 30.2 °F 21.3 °F 17.6 °F 60% 30.10 in 10.0 mi South 10.4 mph - N/A   Clear
2:55 PM 28.4 °F 19.7 °F 17.6 °F 64% 30.10 in 10.0 mi SSW 9.2 mph - N/A   Clear
3:15 PM 28.4 °F 19.1 °F 17.6 °F 64% 30.10 in 10.0 mi South 10.4 mph - N/A   Clear
3:35 PM 28.4 °F 20.4 °F 19.4 °F 69% 30.11 in 10.0 mi SSW 8.1 mph - N/A   Clear
3:55 PM 26.6 °F 20.0 °F 17.6 °F 69% 30.11 in 10.0 mi SSW 5.8 mph - N/A   Clear
4:15 PM 24.8 °F 14.6 °F 17.6 °F 74% 30.11 in 10.0 mi South 10.4 mph - N/A   Clear
4:35 PM 24.8 °F 14.6 °F 15.8 °F 69% 30.11 in 10.0 mi South 10.4 mph - N/A   Clear
4:55 PM 21.2 °F 9.5 °F 17.6 °F 86% 30.11 in 10.0 mi South 11.5 mph - N/A   Clear
5:15 PM 21.2 °F 11.7 °F 15.8 °F 80% 30.12 in 10.0 mi South 8.1 mph - N/A   Clear
5:35 PM 21.2 °F 10.9 °F 14.0 °F 74% 30.11 in 10.0 mi SSW 9.2 mph - N/A   Clear
5:55 PM 21.2 °F 10.9 °F 17.6 °F 86% 30.11 in 10.0 mi South 9.2 mph - N/A   Clear
6:15 PM 21.2 °F 11.7 °F 10.4 °F 63% 30.11 in 10.0 mi SSW 8.1 mph - N/A   Clear
6:35 PM 17.6 °F 6.4 °F 15.8 °F 93% 30.11 in 10.0 mi South 9.2 mph - N/A   Clear
6:55 PM 17.6 °F 6.4 °F 10.4 °F 73% 30.11 in 10.0 mi South 9.2 mph - N/A   Clear
7:15 PM 19.4 °F 8.6 °F 12.2 °F 74% 30.10 in 10.0 mi SSW 9.2 mph - N/A   Clear
7:35 PM 17.6 °F 6.4 °F 10.4 °F 73% 30.11 in 10.0 mi SSW 9.2 mph - N/A   Clear
7:55 PM 17.6 °F 6.4 °F 12.2 °F 79% 30.10 in 10.0 mi SSW 9.2 mph - N/A   Clear
8:15 PM 19.4 °F 7.2 °F 12.2 °F 74% 30.10 in 10.0 mi South 11.5 mph - N/A   Clear
8:35 PM 17.6 °F 5.0 °F 10.4 °F 73% 30.09 in 10.0 mi SSW 11.5 mph - N/A   Clear
8:55 PM 17.6 °F 7.3 °F 12.2 °F 79% 30.09 in 10.0 mi SW 8.1 mph - N/A   Clear
9:15 PM 17.6 °F 6.4 °F 10.4 °F 73% 30.08 in 10.0 mi SW 9.2 mph - N/A   Clear
9:35 PM 17.6 °F 8.2 °F 12.2 °F 79% 30.09 in 10.0 mi SSW 6.9 mph - N/A   Clear
9:55 PM 15.8 °F 7.2 °F 10.4 °F 79% 30.08 in 10.0 mi SW 5.8 mph - N/A   Clear
10:15 PM 15.8 °F 6.1 °F 12.2 °F 86% 30.07 in 10.0 mi SW 6.9 mph - N/A   Clear
10:35 PM 15.8 °F 6.1 °F 8.6 °F 73% 30.07 in 10.0 mi SSW 6.9 mph - N/A   Clear
10:55 PM 8.6 °F -1.3 °F 6.8 °F 92% 30.07 in 10.0 mi SSW 5.8 mph - N/A   Clear
11:15 PM 10.4 °F 0.8 °F 8.6 °F 92% 30.07 in 10.0 mi SW 5.8 mph - N/A   Clear
11:35 PM 15.8 °F 8.6 °F 8.6 °F 73% 30.06 in 10.0 mi WSW 4.6 mph - N/A   Clear
11:55 PM 10.4 °F -0.4 °F 8.6 °F 92% 30.05 in 10.0 mi South 6.9 mph - N/A   Clear